Home > Weather > Lahore > Past weeks

Flag for Pakistan Past Weather in Lahore, Pakistan — Yesterday and Last 2 Weeks

Now
90 °F

Haze.


Feels Like: 90 °F
Forecast: 78 / 107 °F
Wind: 5 mph from West

Location: Lahore Airport

Current Time: May 26, 2016 at 12:06:24 AM

Latest Report: May 25, 2016 at 9:55 PM


Visibility: 3 mi

Pressure: 29.47 "Hg

Humidity: 38%

Dew Point: 61 °F

Location of LahoreLocation

Past Weather in Lahore — Graph

°F

Lahore Temperature Yesterday

Maximum temperature yesterday: 100 °F (at 2:55 PM)
Minimum temperature yesterday: 75 °F (at 3:55 AM)
Average temperature yesterday: 86 °F

High & Low Weather Summary for the Past Weeks

 TemperatureHumidityPressure
High115 °F (May 18, 2:55 PM)83% (May 24, 3:55 AM)29.86 "Hg (May 24, 3:55 AM)
Low70 °F (May 24, 3:55 AM)9% (May 15, 1:55 PM)29.33 "Hg (May 23, 9:25 PM)
Average94 °F34%29.56 "Hg
* Reported May 10 9:59 PM — May 25 9:55 PM, Lahore, Weather by CustomWeather, © 2016

Note: Actual official high and low records may vary slightly from our data, if they occured in-between our weather recording intervals... More about our weather records

Advertising

Lahore Weather History for the Previous 24 Hours

Scroll right to see more
 ConditionsComfort  
Time TempWeatherWind HumidityBarometerVisibility
9:55 PM
Wed, May 25
90 °FHaze.5 mph38%29.47 "Hg3 mi
7:55 PM93 °FHaze.5 mph32%29.45 "Hg3 mi
7:25 PM93 °FHaze.6 mph32%29.45 "Hg3 mi
5:59 PM97 °FClear.6 mph30%29.45 "Hg4 mi
4:59 PM99 °FClear.6 mph27%29.45 "Hg5 mi
3:55 PM100 °FClear.6 mph24%29.45 "Hg5 mi
2:55 PM100 °FClear.No wind25%29.47 "Hg5 mi
2:25 PM99 °FSunny.3 mph29%29.47 "Hg10 mi
1:55 PM99 °FSunny.No wind29%29.50 "Hg10 mi
1:25 PM99 °FSunny.5 mph31%29.50 "Hg10 mi
12:59 PM97 °FSunny.7 mph32%29.53 "Hg10 mi
12:29 PM93 °FSunny.6 mph36%29.53 "Hg10 mi
11:25 AM93 °FSunny.5 mph36%29.56 "Hg10 mi
10:29 AM91 °FSunny.No wind36%29.56 "Hg10 mi
9:59 AM90 °FSunny.5 mph38%29.56 "Hg10 mi
9:29 AM88 °FSunny.3 mph40%29.56 "Hg10 mi
8:59 AM86 °FSunny.5 mph31%29.59 "Hg10 mi
7:55 AM81 °FClear.5 mph58%29.59 "Hg4 mi
7:25 AM79 °FClear.5 mph58%29.59 "Hg4 mi
6:55 AM79 °FPassing clouds.3 mph58%29.56 "Hg4 mi
6:25 AM77 °FPassing clouds.5 mph57%29.56 "Hg3 mi
5:55 AM77 °FPassing clouds.3 mph57%29.56 "Hg3 mi
5:25 AM75 °FPassing clouds.No wind69%29.53 "Hg2 mi
4:55 AM75 °FPassing clouds.6 mph69%29.53 "Hg2 mi
4:25 AM75 °FPassing clouds.5 mph69%29.53 "Hg3 mi
3:55 AM75 °FPassing clouds.6 mph69%29.53 "Hg3 mi
3:25 AM77 °FPassing clouds.6 mph61%29.53 "Hg3 mi
2:55 AM77 °FPassing clouds.7 mph61%29.50 "Hg3 mi
2:25 AM77 °FPassing clouds.6 mph65%29.53 "Hg3 mi
1:55 AM77 °FPassing clouds.6 mph65%29.53 "Hg3 mi
1:25 AM79 °FPassing clouds.7 mph65%29.56 "Hg3 mi
12:55 AM79 °FPassing clouds.No wind61%29.56 "Hg3 mi
12:25 AM79 °FPassing clouds.3 mph61%29.56 "Hg3 mi
Weather by CustomWeather, © 2016

See weather overviewHow to use our weather pages